STARLINK-11598, 63113

Orbit data source: Space-Track

STARLINK-11598, 63113 is a payload satellite owned by SpaceX/Seattle (US) in LEO that was launched on Thu, 27 Feb 2025 UTC via an FALCON 9 launch vehicle from the Air Force Eastern Test Range (AFETR). Payload-class satellites include a variety of spacecraft equipped with specific instruments for various scientific and technological missions. These include communications satellites like Starlink; space stations such as the ISS; scientific satellites like the Hubble; Earth observation satellites from companies like Planet Labs, Umbra, and HawkEye 360; GPS; miniature CubeSats for education and research; and military/defense satellites.

Loading next visibility...
Identifier
63113, 2025-039K
Orbit
LEO
Country
Flag of USUS
Related business
Manufacturer
SpaceX/Seattle
Mission
Operational Commercial Communications
Bus & Motor
STARLINK V2MD, Unknown motor
Mass
960 kg wet, ~910 kg dry
Launch date (UTC)
2025-02-27 (8 months ago)
Launch vehicle
FALCON 9
Launch site
Air Force Eastern Test Range (AFETR)
Object type
Payload
Rocket body
Debris
Shape & HBR
Box + 2 Pan, 18.1 m
Radar Cross Section
36.964 m², Large (>1 m²)

Expand to show TLE details & history
Last TLE update: 20 hours ago

TLE from 20 hours ago
0 STARLINK-11598
1 63113U 25039K   25288.64960181  .00247825  00000-0  18711-2 0  9991
2 63113  43.0035  31.1678 0002746 274.6455  85.4099 15.70924962 36806
Epoch: 2025-10-15T15:35Z
TLE epoch observation values (Epoch: 2025-10-15T15:35:25.596Z)
Latitude
-0.00002°
Longitude
132.89049°
Altitude
355.876 km
Speed
7.698 km/s
True Right ascension
02h 04m 40s
True Declination
0° 00' 00"
Sunlit
Object was in full shadow at epoch
Visualization orbit readout
Latitude
Unknown
Longitude
Unknown
Altitude
Unknown
Speed
Unknown
Apparent Right ascension
Unknown
Apparent Declination
Unknown
Sunlit
N/A
Visualization observer readout
Local Sidereal Time
06:27:35
Azimuth
Unknown
Elevation
Unknown
Doppler factor
Unknown
Orbital elements
Apogee altitude
360.083 km
Perigee altitude
356.383 km
Semi-major axis
6,736.37 km
Eccentricity
0.00027
Inclination
43.0035°
RAAN
31.1678°
Arg. of periapsis
274.6455°
True anomaly
85.44127°
Mean anomaly
85.4099°
Eccentric anomaly
85.42558°
Mean motion
3.92558 °/min
Orbital period
91.71 mins
BSTAR
0.0018711
Loading maneuver chart data...
Computing Atmospheric mass density...
Loading historical data...
Loading historical data...
Loading historical data...
Loading historical data...
Loading historical data...
Loading historical data...
Loading historical data...

Documentation

Showing up to 5 results
|